GW5433 Weather Reports


Display with metric or nautical units.
time (UTC)temp
F
wind
direction
speed
MPH
gust
MPH
rain 1hr
in
rain 24hr
in
rain mn
in
humidity
%
barometer
mb
20260502152012 67 41 0.0 3.0 0.00 3.23 0.00 67 1020.7
20260502151527 67 117 0.0 3.0 0.00 3.23 0.00 69 1020.7
20260502151006 67 81 1.0 3.0 0.00 3.23 0.00 69 1020.7
20260502150507 66 214 0.0 2.0 0.00 3.23 0.00 69 1020.7
20260502130512 55 99 0.0 1.0 0.00 3.35 0.00 90 1019.4
20260502123514 54 272 0.0 2.0 0.00 3.36 0.00 92 1019.1
20260502123024 54 226 0.0 1.0 0.00 3.36 0.00 92 1018.9
20260502122512 53 210 0.0 1.0 0.00 3.36 0.00 92 1018.8
20260502122003 53 72 0.0 0.0 0.00 3.36 0.00 92 1018.6
20260502121510 53 98 0.0 3.0 0.00 3.36 0.00 92 1018.6
20260502121004 53 4 0.0 3.0 0.00 3.36 0.00 92 1018.6
20260502120506 53 3 0.0 1.0 0.00 3.37 0.00 92 1018.6
20260502115503 53 226 0.0 1.0 0.00 3.37 0.00 92 1018.5
20260502115006 53 226 0.0 1.0 0.00 3.37 0.00 92 1018.3
20260502114518 53 260 0.0 1.0 0.00 3.37 0.00 92 1018.3
20260502114007 53 231 0.0 1.0 0.00 3.37 0.00 92 1018.3
20260502113508 53 327 0.0 1.0 0.00 3.37 0.00 92 1018.2
20260502113023 53 253 0.0 3.0 0.00 3.37 0.00 92 1018.2
20260502112508 53 45 0.0 3.0 0.00 3.37 0.00 92 1018.0
20260502112011 53 235 0.0 0.0 0.00 3.37 0.00 92 1018.0
20260502111526 53 105 0.0 0.0 0.00 3.40 0.00 92 1017.9
20260502111011 53 56 0.0 0.0 0.00 3.41 0.00 91 1017.9
20260502110513 53 57 0.0 0.0 0.00 3.41 0.00 91 1018.1
20260502110012 53 56 0.0 0.0 0.00 3.41 0.00 91 1018.0
20260502105504 53 59 0.0 0.0 0.00 3.41 0.00 91 1018.0
20260502105005 53 59 0.0 0.0 0.00 3.41 0.00 90 1017.9
20260502104515 53 59 0.0 0.0 0.00 3.41 0.00 90 1017.8
20260502104008 53 59 0.0 0.0 0.00 3.41 0.00 90 1017.7
20260502103506 53 59 0.0 0.0 0.00 3.41 0.00 89 1017.5
20260502103048 53 59 0.0 0.0 0.00 3.41 0.00 89 1017.4
20260502102507 53 59 0.0 1.0 0.00 3.41 0.00 89 1017.3
20260502102007 53 59 0.0 1.0 0.00 3.41 0.00 89 1017.3
20260502101538 54 44 0.0 0.0 0.00 3.41 0.00 88 1017.1
20260502101007 54 249 0.0 1.0 0.00 3.41 0.00 88 1017.1
20260502100510 54 249 0.0 1.0 0.00 3.42 0.00 88 1016.9
20260502091523 55 293 0.0 0.0 0.00 3.43 0.00 89 1016.3
20260502091012 55 126 0.0 0.0 0.00 3.43 0.00 89 1016.3
20260502090507 55 34 0.0 0.0 0.00 3.43 0.00 89 1016.2
20260502071529 56 29 0.0 1.0 0.00 3.43 0.00 91 1016.2
20260502071004 56 21 0.0 1.0 0.00 3.43 0.00 91 1016.2
20260502070510 56 330 0.0 1.0 0.00 3.43 0.00 91 1016.2
20260502070022 56 205 0.0 4.0 0.00 3.44 0.00 91 1016.1
20260502065503 56 330 0.0 4.0 0.00 3.45 0.00 91 1016.1
20260502065005 56 34 0.0 2.0 0.00 3.46 0.00 91 1016.2
20260502064508 56 156 0.0 3.0 0.00 3.47 0.00 91 1016.1
20260502064004 56 211 0.0 3.0 0.00 3.48 0.00 91 1016.0
20260502063505 56 207 0.0 2.0 0.00 3.49 0.00 92 1016.0
20260502063008 56 248 0.0 1.0 0.00 3.50 0.00 92 1015.9
20260502062505 56 32 0.0 3.0 0.00 3.52 0.00 92 1015.9
20260502062005 56 18 0.0 3.0 0.00 3.57 0.00 92 1015.8
20260502061513 56 238 0.0 3.0 0.00 3.58 0.00 92 1015.8
20260502061004 56 40 0.0 2.0 0.00 3.61 0.00 92 1015.8
20260502060505 56 124 0.0 4.0 0.00 3.64 0.00 92 1015.8
20260502060018 56 188 0.0 4.0 0.00 3.69 0.00 93 1015.7
20260502055505 56 212 0.0 3.0 0.00 3.75 0.00 93 1015.7
20260502055008 56 75 0.0 3.0 0.00 3.78 0.00 93 1015.8
20260502054522 56 102 1.0 4.0 0.00 3.83 0.00 93 1015.5
20260502054002 56 15 0.0 4.0 0.00 3.90 0.00 93 1015.6
20260502053504 56 91 0.0 4.0 0.00 3.92 0.00 93 1015.7
20260502053008 56 65 0.0 1.0 0.00 3.97 0.00 93 1015.7
20260502052504 56 22 0.0 2.0 0.00 4.07 0.00 93 1015.7
20260502052004 56 316 0.0 2.0 0.00 4.10 0.00 93 1015.6
20260502051512 56 232 0.0 5.0 0.00 4.12 0.00 93 1015.8
20260502051003 56 95 0.0 5.0 0.00 4.34 0.00 93 1015.7
20260502050504 56 99 0.0 2.0 0.00 4.71 0.00 93 1015.8
20260502050014 56 249 0.0 2.0 0.00 4.78 0.00 94 1015.9
20260502045504 56 288 1.0 3.0 0.00 4.79 4.78 94 1015.8
20260502045006 56 215 0.0 3.0 0.00 4.79 4.78 94 1015.6
20260502044519 56 139 0.0 2.0 0.00 4.79 4.78 94 1015.5
20260502044008 56 231 0.0 1.0 0.00 4.79 4.78 94 1015.5
20260502043511 56 156 0.0 2.0 0.00 4.79 4.78 94 1015.5
20260502043028 56 81 0.0 2.0 0.00 4.79 4.78 94 1015.7
20260502042512 56 133 0.0 4.0 0.00 4.79 4.78 94 1015.7
20260502042004 57 236 0.0 4.0 0.00 4.79 4.78 94 1015.6
20260502041510 57 65 0.0 3.0 0.00 4.79 4.78 94 1015.5
20260502041004 57 274 0.0 1.0 0.00 4.79 4.78 94 1015.5
20260502040504 57 39 0.0 1.0 0.00 4.79 4.78 94 1015.6
20260502040011 57 174 0.0 1.0 0.00 4.79 4.78 94 1015.5
20260502035503 57 22 0.0 2.0 0.00 4.79 4.78 94 1015.4
20260502035004 57 279 0.0 2.0 0.00 4.79 4.78 94 1015.4
20260502034518 57 229 0.0 1.0 0.00 4.79 4.78 94 1015.4
20260502034005 57 242 0.0 2.0 0.00 4.79 4.78 94 1015.2
20260502033507 57 96 0.0 2.0 0.00 4.79 4.78 94 1015.2
20260502033024 57 231 0.0 4.0 0.00 4.79 4.78 94 1015.1
20260502032509 57 160 0.0 4.0 0.00 4.79 4.78 94 1014.9
20260502032008 57 78 0.0 3.0 0.00 4.80 4.78 94 1014.8
20260502031524 57 153 0.0 3.0 0.01 4.80 4.78 94 1014.7
20260502031010 57 258 0.0 4.0 0.01 4.81 4.78 94 1014.6
20260502030504 57 136 0.0 4.0 0.01 4.81 4.78 94 1014.8
20260502030008 57 77 0.0 4.0 0.02 4.82 4.78 94 1014.3
20260502025502 57 18 0.0 3.0 0.02 4.83 4.78 94 1013.8
20260502025003 58 265 0.0 5.0 0.03 4.83 4.78 94 1013.9
20260502024514 58 244 0.0 5.0 0.03 4.85 4.78 95 1013.8
20260502024010 58 20 1.0 5.0 0.04 4.87 4.78 95 1013.7
20260502023506 58 132 0.0 1.0 0.05 4.88 4.78 95 1013.7
20260502023020 58 153 0.0 0.0 0.06 4.88 4.78 95 1013.6
20260502022505 58 159 0.0 0.0 0.06 4.88 4.78 95 1013.5
20260502022004 58 40 0.0 0.0 0.06 4.89 4.78 95 1013.6
20260502021522 58 254 0.0 0.0 0.06 4.88 4.77 95 1013.6
20260502021008 58 61 0.0 0.0 0.06 4.88 4.77 95 1013.7
20260502020510 58 143 0.0 3.0 0.07 4.88 4.77 95 1013.7
20260502020028 58 257 0.0 3.0 0.07 4.87 4.76 95 1013.8
20260502015510 59 2 0.0 1.0 0.08 4.87 4.76 95 1013.7
20260502015007 59 148 0.0 0.0 0.07 4.86 4.75 95 1013.8
20260502014510 59 302 0.0 1.0 0.07 4.86 4.75 95 1013.7
20260502014003 59 100 0.0 2.0 0.06 4.85 4.73 95 1013.5
20260502013505 59 103 0.0 2.0 0.05 4.84 4.73 95 1013.3
20260502013017 59 317 0.0 1.0 0.05 4.83 4.71 95 1013.4
20260502012507 59 274 0.0 1.0 0.05 4.83 4.71 95 1013.5
20260502012008 59 108 0.0 1.0 0.05 4.83 4.71 95 1013.1
20260502011522 59 162 0.0 2.0 0.04 4.82 4.71 95 1012.8
20260502011008 59 261 0.0 3.0 0.05 4.82 4.71 95 1012.6
20260502010504 59 45 0.0 3.0 0.06 4.81 4.69 95 1012.7
20260502010026 59 106 0.0 3.0 0.12 4.80 4.69 95 1012.7
20260502005513 59 219 0.0 3.0 0.19 4.79 4.67 95 1012.8
20260502005010 59 121 0.0 0.0 0.25 4.79 4.67 95 1012.7
20260502004526 59 248 0.0 2.0 0.29 4.79 4.67 95 1012.5
20260502004009 59 85 0.0 3.0 0.31 4.79 4.67 94 1012.1
20260502003509 59 276 0.0 5.0 0.31 4.79 4.67 94 1011.8
20260502003014 59 259 0.0 5.0 0.31 4.78 4.67 94 1011.5
20260502002506 59 288 0.0 5.0 0.33 4.78 4.67 94 1011.3
20260502002008 59 331 0.0 3.0 0.36 4.78 4.67 95 1011.5
20260502001519 59 96 0.0 3.0 0.38 4.78 4.67 94 1011.8
20260502001008 60 148 0.0 2.0 0.39 4.77 4.66 94 1011.8
20260502000509 60 107 0.0 3.0 0.39 4.75 4.64 94 1011.7
20260502000024 60 236 0.0 4.0 0.34 4.67 4.57 94 1011.7
20260501235511 60 137 0.0 4.0 0.33 4.60 4.48 95 1011.9
20260501235011 60 264 0.0 2.0 0.32 4.54 4.42 95 1011.8
20260501234531 60 158 0.0 6.0 0.29 4.50 4.39 94 1011.5
20260501234010 60 258 0.0 6.0 0.27 4.48 4.37 94 1010.7
20260501233510 60 230 0.0 3.0 0.27 4.48 4.37 94 1010.6
20260501233027 60 329 0.0 3.0 0.26 4.46 4.36 94 1009.7
20260501232513 61 157 0.0 2.0 0.24 4.44 4.34 95 1010.0
20260501232010 61 2 0.0 2.0 0.21 4.42 4.31 95 1010.7
20260501231516 61 113 0.0 2.0 0.19 4.40 4.29 94 1010.7
20260501231003 61 176 0.0 3.0 0.17 4.38 4.27 94 1010.6
20260501230509 61 41 0.0 3.0 0.15 4.36 4.25 94 1010.5
20260501230020 61 84 0.0 2.0 0.13 4.34 4.23 94 1010.1
20260501225505 61 304 0.0 0.0 0.06 4.27 4.16 94 1010.3
20260501225007 61 57 0.0 2.0 0.02 4.21 4.11 94 1010.5
20260501224527 61 57 0.0 2.0 0.03 4.21 4.10 94 1010.6
20260501224010 61 25 0.0 4.0 0.03 4.21 4.10 94 1010.4
20260501223506 61 183 1.0 4.0 0.04 4.21 4.10 94 1010.6
20260501223036 62 113 0.0 3.0 0.04 4.21 4.10 95 1010.5
20260501222511 62 37 0.0 3.0 0.04 4.21 4.10 94 1010.3
20260501222014 62 352 0.0 3.0 0.04 4.21 4.10 95 1010.2
20260501221531 62 52 0.0 3.0 0.04 4.21 4.10 95 1010.0
20260501221012 62 283 0.0 3.0 0.04 4.21 4.10 95 1010.3
20260501220511 62 349 0.0 2.0 0.04 4.21 4.10 95 1010.6
20260501220014 62 138 0.0 2.0 0.05 4.21 4.10 95 1010.7
20260501215507 62 169 0.0 2.0 0.06 4.21 4.10 95 1010.4
20260501215008 62 191 0.0 3.0 0.08 4.19 4.09 95 1010.6
20260501214530 62 55 0.0 3.0 0.07 4.17 4.07 95 1010.4
20260501214009 62 241 0.0 1.0 0.09 4.17 4.07 95 1010.8
20260501213507 62 251 0.0 1.0 0.10 4.17 4.06 95 1011.3
20260501213023 62 151 0.0 1.0 0.11 4.17 4.06 95 1010.9
20260501212508 62 98 0.0 1.0 0.12 4.17 4.06 95 1010.6
20260501212009 62 235 0.0 0.0 0.14 4.17 4.06 95 1010.6
20260501211528 62 355 0.0 1.0 0.15 4.17 4.06 95 1010.4
20260501211013 62 236 0.0 1.0 0.17 4.17 4.06 95 1010.3
20260501210509 62 245 0.0 0.0 0.19 4.17 4.06 95 1009.9
20260501210036 62 328 0.0 0.0 0.18 4.16 4.05 95 1010.0
20260501205507 62 328 0.0 2.0 0.18 4.15 4.04 95 1009.7
20260501205007 62 248 0.0 2.0 0.15 4.12 4.01 95 1009.9
20260501204522 62 64 0.0 2.0 0.16 4.11 4.00 95 1009.3
20260501204008 62 283 0.0 3.0 0.22 4.09 3.98 95 1009.4
20260501203508 62 195 0.0 3.0 0.32 4.07 3.96 95 1009.1
20260501203028 63 82 0.0 4.0 0.43 4.06 3.95 95 1009.4
20260501202505 63 217 0.0 4.0 0.67 4.05 3.94 95 1009.1
20260501202011 63 124 0.0 0.0 0.84 4.03 3.92 95 1009.1
20260501201529 63 75 0.0 2.0 0.86 4.02 3.91 95 1009.5
20260501201019 62 360 0.0 2.0 0.87 4.00 3.89 95 1009.2
20260501200504 62 79 0.0 2.0 0.87 3.98 3.87 95 1009.5
20260501200014 63 147 0.0 2.0 0.88 3.98 3.87 95 1009.1
20260501195503 63 94 0.0 2.0 0.88 3.97 3.86 95 1009.1
20260501195003 63 192 0.0 1.0 0.89 3.97 3.86 95 1009.3
20260501194526 63 282 0.0 3.0 0.89 3.95 3.84 95 1009.2
20260501194005 63 237 0.0 3.0 0.84 3.87 3.76 95 1009.1
20260501193508 63 297 0.0 2.0 0.75 3.75 3.64 95 1009.5
20260501193020 63 275 0.0 2.0 0.66 3.63 3.52 95 1009.0
20260501192508 63 70 0.0 2.0 0.41 3.38 3.27 95 1008.7
20260501192009 63 253 0.0 2.0 0.23 3.19 3.08 95 1009.6
20260501191524 63 291 0.0 2.0 0.23 3.16 3.05 95 1009.4
20260501191004 63 264 0.0 2.0 0.23 3.13 3.02 95 1008.8
20260501190504 63 302 0.0 2.0 0.28 3.11 3.00 95 1008.7
20260501190010 63 12 0.0 1.0 0.30 3.10 2.99 95 1008.8
20260501185504 63 295 0.0 2.0 0.29 3.09 2.98 95 1008.9
20260501185004 63 4 0.0 3.0 0.28 3.08 2.97 94 1008.3
20260501184513 63 329 0.0 3.0 0.27 3.06 2.95 95 1008.8
20260501184003 63 351 0.0 3.0 0.24 3.03 2.92 95 1008.8
20260501183507 63 267 0.0 5.0 0.23 3.00 2.89 95 1010.0
20260501183017 63 330 0.0 5.0 0.20 2.97 2.86 95 1011.3
20260501182509 63 266 0.0 3.0 0.20 2.97 2.86 95 1010.7
20260501182009 63 59 0.0 6.0 0.19 2.96 2.85 95 1009.5
20260501181523 63 259 0.0 6.0 0.16 2.93 2.82 95 1008.8
20260501181010 63 44 0.0 2.0 0.14 2.90 2.79 95 1008.9
20260501180510 63 158 0.0 1.0 0.09 2.83 2.72 95 1010.3
20260501180033 63 94 0.0 1.0 0.09 2.80 2.69 94 1010.9
20260501175504 63 12 0.0 1.0 0.09 2.80 2.69 94 1010.8
20260501175002 63 298 0.0 1.0 0.09 2.80 2.69 95 1010.2
20260501174507 63 61 0.0 2.0 0.08 2.79 2.68 94 1010.0
20260501174003 63 62 0.0 2.0 0.10 2.79 2.68 94 1010.1
20260501173503 63 212 0.0 0.0 0.09 2.77 2.66 95 1010.4
20260501173016 63 222 0.0 1.0 0.12 2.77 2.66 94 1010.4
20260501172503 63 19 0.0 3.0 0.31 2.77 2.66 94 1010.0
20260501172015 63 138 0.0 4.0 0.57 2.77 2.66 94 1009.8
20260501171518 63 161 0.0 4.0 0.94 2.77 2.66 94 1010.2
20260501171007 63 72 0.0 2.0 1.08 2.76 2.65 94 1010.1
20260501170508 63 88 0.0 2.0 1.05 2.74 2.63 94 1010.6
20260501170029 63 139 0.0 4.0 1.03 2.71 2.60 94 1010.9
20260501165509 63 311 0.0 4.0 1.04 2.71 2.60 94 1011.3
20260501165015 63 261 0.0 1.0 1.04 2.71 2.60 94 1010.9
20260501164526 63 195 0.0 1.0 1.04 2.71 2.60 94 1010.8
20260501164003 63 234 0.0 1.0 1.03 2.69 2.58 94 1010.7
20260501163504 63 22 0.0 1.0 1.02 2.68 2.57 94 1011.6
20260501163010 63 243 0.0 2.0 0.99 2.65 2.54 94 1011.6
20260501162504 63 34 0.0 2.0 0.80 2.46 2.34 94 1012.2
20260501162005 63 355 0.0 4.0 0.54 2.20 2.08 94 1011.4
20260501161518 63 318 0.0 4.0 0.17 1.83 1.72 94 1012.6
20260501161010 63 310 0.0 4.0 0.02 1.68 1.57 94 1012.4
20260501160510 63 140 0.0 1.0 0.02 1.68 1.57 94 1011.3
20260501160028 63 38 0.0 1.0 0.02 1.68 1.57 94 1011.4
20260501155511 63 52 0.0 1.0 0.01 1.67 1.56 93 1011.6
20260501155008 63 145 0.0 4.0 0.01 1.67 1.56 94 1011.2
20260501154524 63 152 0.0 4.0 0.00 1.66 1.55 93 1011.1